Flag for USA

Past Weather in 43°10'28"N, 88°01'35"W, USA — Yesterday and Last 2 Weeks

Now
70 °F

Clear.


Feels Like: 70 °F
Forecast: 82 / 67 °F
Wind: 9 mph from West

Location: Milwaukee / Timmerman

Current Time: Jul 11, 2020 at 2:16:53 am

Latest Report: Jul 11, 2020 at 1:35 am


Visibility: 10 mi

Pressure: 29.90 "Hg

Humidity: 69%

Dew Point: 59 °F

Location of 43°10'28"N, 88°01'35"WLocation

Past Weather in 43°10'28"N, 88°01'35"W — Graph

°F

43°10'28"N, 88°01'35"W Temperature Yesterday

Maximum temperature yesterday: 81 °F (at 12:45 pm)
Minimum temperature yesterday: 68 °F (at 3:15 am)
Average temperature yesterday: 72 °F

High & Low Weather Summary for the Past Weeks

 TemperatureHumidityPressure
High91 °F (Jul 7, 1:45 pm)94% (Jul 8, 3:55 am)30.09 "Hg (Jul 8, 3:55 am)
Low59 °F (Jun 26, 4:55 am)29% (Jul 4, 3:45 pm)29.76 "Hg (Jul 10, 2:35 am)
Average72 °F69%29.94 "Hg
* Reported Jun 26 12:15 am — Jul 11 12:55 am, 43°10'28"N, 88°01'35"W. Weather by CustomWeather, © 2020

Note: Actual official high and low records may vary slightly from our data, if they occured in-between our weather recording intervals... More about our weather records

43°10'28"N, 88°01'35"W Weather History for the Previous 24 Hours

Scroll right to see more
 ConditionsComfort  
Time TempWeatherWind HumidityBarometerVisibility
12:55 am
Sat, Jul 11
68 °FClear.6 mph73%29.89 "Hg10 mi
12:35 am70 °FClear.5 mph69%29.89 "Hg10 mi
12:15 am70 °FClear.7 mph69%29.88 "Hg10 mi
11:55 pm
Fri, Jul 10
70 °FClear.5 mph69%29.89 "Hg10 mi
11:35 pm70 °FClear.7 mph69%29.89 "Hg10 mi
11:15 pm72 °FClear.8 mph65%29.89 "Hg10 mi
10:55 pm72 °FClear.8 mph65%29.89 "Hg10 mi
10:35 pm72 °FClear.5 mph65%29.89 "Hg10 mi
10:15 pm72 °FClear.7 mph65%29.90 "Hg10 mi
9:55 pm72 °FClear.6 mph65%29.90 "Hg10 mi
9:35 pm72 °FClear.7 mph65%29.89 "Hg10 mi
9:15 pm73 °FClear.6 mph61%29.88 "Hg10 mi
7:45 pm79 °FSunny.8 mph48%29.88 "Hg10 mi
6:45 pm81 °FSunny.12 mph42%29.87 "Hg10 mi
5:45 pm81 °FScattered clouds.18 mph45%29.87 "Hg10 mi
4:45 pm81 °FScattered clouds.16 mph45%29.87 "Hg10 mi
3:45 pm81 °FMostly cloudy.15 mph51%29.86 "Hg10 mi
2:45 pm79 °FBroken clouds.15 mph54%29.85 "Hg10 mi
1:45 pm81 °FBroken clouds.10 mph54%29.84 "Hg10 mi
12:45 pm81 °FBroken clouds.12 mph54%29.84 "Hg10 mi
11:45 am79 °FBroken clouds.17 mph58%29.83 "Hg10 mi
10:45 am75 °FBroken clouds.10 mph69%29.83 "Hg10 mi
9:45 am70 °FMostly cloudy.12 mph78%29.83 "Hg10 mi
8:45 am70 °FMostly cloudy.14 mph78%29.83 "Hg10 mi
7:45 am68 °FLight rain. Mostly cloudy.13 mph83%29.92 "Hg7 mi
7:15 am68 °FLight rain. Overcast.10 mph83%29.82 "Hg10 mi
6:55 am68 °FOvercast.12 mph83%29.81 "Hg10 mi
6:35 am68 °FDrizzle. Mostly cloudy.7 mph83%29.81 "Hg10 mi
6:15 am68 °FLight rain. Cloudy.7 mph83%29.80 "Hg7 mi
5:55 am68 °FRain. Cloudy.8 mph83%29.79 "Hg3 mi
5:35 am68 °FDrizzle. Low clouds.7 mph88%29.80 "Hg4 mi
5:15 am68 °FDrizzle. Overcast.3 mph88%29.79 "Hg7 mi
4:55 am68 °FRain. Mostly cloudy.No wind88%29.79 "Hg10 mi
4:35 am68 °FMostly cloudy.No wind88%29.79 "Hg10 mi
4:15 am68 °FLow clouds.No wind88%29.78 "Hg10 mi
3:55 am68 °FMostly cloudy.6 mph88%29.77 "Hg10 mi
3:35 am68 °FLow clouds.7 mph88%29.76 "Hg10 mi
3:15 am68 °FLow clouds.7 mph88%29.76 "Hg10 mi
2:35 am70 °FPartly cloudy.7 mph83%29.76 "Hg10 mi
2:15 am70 °FDrizzle. Mostly cloudy.5 mph83%29.77 "Hg5 mi
Weather by CustomWeather, © 2020

See weather overview